• In Deutschland
  • Länderverzeichnis
  • Für 7 Tage
  • Wassertemperatur
  • Satellitenkarten
  • Wetterkarte
  • Widgets
  • user-avatar
    Anmelden

    Stündliche Wetter Rangpur

    Heute, 20 Oktober, Freitag

    Zeit Temperatur Niederschläge Wind Luftdruck Luftfeuchtigkeit
    00:00 +28°C° 0 mm 2 m/S 754 mmHg 84%
    01:00 +27°C° 0 mm 2 m/S 754 mmHg 85%
    02:00 +27°C° 0 mm 2 m/S 754 mmHg 85%
    03:00 +27°C° 0 mm 3 m/S 753 mmHg 86%
    04:00 +26°C° 0 mm 3 m/S 753 mmHg 86%
    05:00 +26°C° 0 mm 3 m/S 753 mmHg 86%
    06:00 +26°C° 0 mm 2 m/S 753 mmHg 87%
    07:00 +27°C° 0 mm 3 m/S 753 mmHg 85%
    08:00 +28°C° 0 mm 4 m/S 754 mmHg 83%
    09:00 +28°C° 0 mm 5 m/S 754 mmHg 82%
    10:00 +28°C° 1,3 mm 5 m/S 754 mmHg 83%
    11:00 +28°C° 1,3 mm 5 m/S 754 mmHg 85%
    12:00 +28°C° 1,3 mm 5 m/S 754 mmHg 87%
    13:00 +27°C° 2,7 mm 5 m/S 754 mmHg 89%
    14:00 +27°C° 2,7 mm 5 m/S 753 mmHg 91%
    15:00 +26°C° 2,7 mm 5 m/S 753 mmHg 93%
    16:00 +26°C° 5,5 mm 5 m/S 753 mmHg 93%
    17:00 +26°C° 5,5 mm 6 m/S 753 mmHg 94%
    18:00 +26°C° 5,5 mm 6 m/S 753 mmHg 94%
    19:00 +26°C° 8,8 mm 6 m/S 753 mmHg 94%
    20:00 +26°C° 8,8 mm 7 m/S 753 mmHg 94%
    21:00 +26°C° 8,8 mm 7 m/S 754 mmHg 94%
    22:00 +24°C° 4,8 mm 7 m/S 754 mmHg 94%
    23:00 +24°C° 4,8 mm 7 m/S 753 mmHg 94%

    Morgen, 21 Oktober, Samstag

    Zeit Temperatur Niederschläge Wind Luftdruck Luftfeuchtigkeit
    00:00 +24°C° 4,8 mm 6 m/S 753 mmHg 94%
    01:00 +24°C° 3,5 mm 6 m/S 752 mmHg 94%
    02:00 +24°C° 3,5 mm 6 m/S 752 mmHg 94%
    03:00 +24°C° 3,5 mm 6 m/S 751 mmHg 94%
    04:00 +24°C° 3,9 mm 7 m/S 751 mmHg 94%
    05:00 +24°C° 3,9 mm 7 m/S 751 mmHg 94%
    06:00 +24°C° 3,9 mm 7 m/S 750 mmHg 94%
    07:00 +24°C° 12,1 mm 8 m/S 750 mmHg 94%
    08:00 +24°C° 12,1 mm 9 m/S 751 mmHg 94%
    09:00 +24°C° 12,1 mm 10 m/S 751 mmHg 93%
    10:00 +24°C° 13,7 mm 10 m/S 750 mmHg 93%
    11:00 +24°C° 13,7 mm 10 m/S 750 mmHg 93%
    12:00 +24°C° 13,7 mm 9 m/S 750 mmHg 93%
    13:00 +23°C° 9,3 mm 10 m/S 749 mmHg 93%
    14:00 +23°C° 9,3 mm 10 m/S 748 mmHg 93%
    15:00 +23°C° 9,3 mm 11 m/S 747 mmHg 93%
    16:00 +23°C° 9,2 mm 11 m/S 747 mmHg 92%
    17:00 +23°C° 9,2 mm 11 m/S 747 mmHg 92%
    18:00 +23°C° 9,2 mm 11 m/S 747 mmHg 91%
    19:00 +23°C° 1,8 mm 10 m/S 748 mmHg 91%
    20:00 +23°C° 1,8 mm 10 m/S 748 mmHg 91%
    21:00 +23°C° 1,8 mm 9 m/S 749 mmHg 90%
    22:00 +23°C° 0,9 mm 8 m/S 749 mmHg 91%
    23:00 +23°C° 0,9 mm 7 m/S 749 mmHg 91%

    übermorgen, 22 Oktober, Sonntag

    Zeit Temperatur Niederschläge Wind Luftdruck Luftfeuchtigkeit
    00:00 +22°C° 0,9 mm 6 m/S 749 mmHg 92%
    01:00 +22°C° 0,7 mm 5 m/S 749 mmHg 92%
    02:00 +22°C° 0,7 mm 5 m/S 749 mmHg 92%
    03:00 +22°C° 0,7 mm 4 m/S 749 mmHg 92%
    04:00 +22°C° 0,6 mm 4 m/S 749 mmHg 92%
    05:00 +22°C° 0,6 mm 3 m/S 749 mmHg 93%
    06:00 +22°C° 0,6 mm 3 m/S 750 mmHg 93%
    07:00 +22°C° 0,2 mm 3 m/S 751 mmHg 93%
    08:00 +24°C° 0,2 mm 2 m/S 751 mmHg 92%
    09:00 +24°C° 0,2 mm 2 m/S 752 mmHg 92%
    10:00 +25°C° 0 mm 2 m/S 752 mmHg 90%
    11:00 +25°C° 0 mm 2 m/S 752 mmHg 88%
    12:00 +26°C° 0 mm 2 m/S 752 mmHg 86%
    13:00 +26°C° 0 mm 2 m/S 751 mmHg 85%
    14:00 +26°C° 0 mm 2 m/S 751 mmHg 84%
    15:00 +27°C° 0 mm 3 m/S 751 mmHg 84%
    16:00 +26°C° 0 mm 3 m/S 751 mmHg 85%
    17:00 +25°C° 0 mm 3 m/S 751 mmHg 87%
    18:00 +24°C° 0 mm 3 m/S 751 mmHg 88%
    19:00 +23°C° 0 mm 4 m/S 752 mmHg 88%
    20:00 +23°C° 0 mm 4 m/S 753 mmHg 87%
    21:00 +22°C° 0 mm 4 m/S 754 mmHg 87%
    22:00 +22°C° 0 mm 4 m/S 753 mmHg 87%
    23:00 +22°C° 0 mm 4 m/S 753 mmHg 88%

    23 Oktober, Montag

    Zeit Temperatur Niederschläge Wind Luftdruck Luftfeuchtigkeit
    00:00 +22°C° 0 mm 4 m/S 753 mmHg 88%
    01:00 +22°C° 0 mm 3 m/S 753 mmHg 89%
    02:00 +21°C° 0 mm 3 m/S 753 mmHg 90%
    03:00 +21°C° 0 mm 3 m/S 753 mmHg 90%
    04:00 +21°C° 0 mm 2 m/S 753 mmHg 91%
    05:00 +21°C° 0 mm 2 m/S 753 mmHg 92%
    06:00 +21°C° 0 mm 2 m/S 753 mmHg 93%
    07:00 +23°C° 0 mm 2 m/S 754 mmHg 89%
    08:00 +25°C° 0 mm 3 m/S 754 mmHg 85%
    09:00 +26°C° 0 mm 3 m/S 755 mmHg 81%
    10:00 +27°C° 0 mm 2 m/S 755 mmHg 77%
    11:00 +29°C° 0 mm 2 m/S 754 mmHg 72%
    12:00 +30°C° 0 mm 2 m/S 754 mmHg 68%
    13:00 +30°C° 0 mm 1 m/S 754 mmHg 66%
    14:00 +31°C° 0 mm 1 m/S 753 mmHg 64%
    15:00 +31°C° 0 mm 1 m/S 753 mmHg 62%
    16:00 +30°C° 0 mm 1 m/S 753 mmHg 67%
    17:00 +28°C° 0 mm 1 m/S 753 mmHg 71%
    18:00 +27°C° 0 mm 1 m/S 753 mmHg 75%
    19:00 +27°C° 0 mm 1 m/S 754 mmHg 78%
    20:00 +26°C° 0 mm 2 m/S 754 mmHg 81%
    21:00 +26°C° 0 mm 2 m/S 755 mmHg 84%
    22:00 +25°C° 0 mm 2 m/S 755 mmHg 86%
    23:00 +25°C° 0 mm 2 m/S 755 mmHg 88%

    24 Oktober, Dienstag

    Zeit Temperatur Niederschläge Wind Luftdruck Luftfeuchtigkeit
    00:00 +24°C° 0 mm 2 m/S 755 mmHg 91%
    01:00 +24°C° 0 mm 2 m/S 755 mmHg 92%
    02:00 +24°C° 0 mm 2 m/S 755 mmHg 93%
    03:00 +24°C° 0 mm 2 m/S 754 mmHg 94%
    04:00 +23°C° 0 mm 2 m/S 755 mmHg 95%
    05:00 +23°C° 0 mm 2 m/S 755 mmHg 95%
    06:00 +23°C° 0 mm 2 m/S 755 mmHg 96%
    07:00 +24°C° 0 mm 2 m/S 756 mmHg 91%
    08:00 +26°C° 0 mm 3 m/S 756 mmHg 86%
    09:00 +27°C° 0 mm 3 m/S 757 mmHg 82%
    10:00 +28°C° 0 mm 2 m/S 757 mmHg 76%
    11:00 +29°C° 0 mm 2 m/S 756 mmHg 71%
    12:00 +30°C° 0 mm 2 m/S 756 mmHg 66%
    13:00 +31°C° 0 mm 2 m/S 755 mmHg 64%
    14:00 +31°C° 0 mm 1 m/S 755 mmHg 62%
    15:00 +31°C° 0 mm 1 m/S 754 mmHg 60%
    16:00 +30°C° 0 mm 1 m/S 754 mmHg 64%
    17:00 +29°C° 0 mm 1 m/S 754 mmHg 68%
    18:00 +27°C° 0 mm 1 m/S 754 mmHg 72%
    19:00 +27°C° 0 mm 1 m/S 755 mmHg 75%
    20:00 +26°C° 0 mm 1 m/S 756 mmHg 77%
    21:00 +26°C° 0 mm 1 m/S 756 mmHg 79%
    22:00 +26°C° 0 mm 1 m/S 756 mmHg 81%
    23:00 +25°C° 0 mm 1 m/S 756 mmHg 83%

    25 Oktober, Mittwoch

    Zeit Temperatur Niederschläge Wind Luftdruck Luftfeuchtigkeit
    00:00 +25°C° 0 mm 2 m/S 757 mmHg 86%
    01:00 +24°C° 0 mm 2 m/S 756 mmHg 87%
    02:00 +24°C° 0 mm 2 m/S 756 mmHg 89%
    03:00 +24°C° 0 mm 2 m/S 756 mmHg 90%
    04:00 +24°C° 0 mm 2 m/S 756 mmHg 91%
    05:00 +23°C° 0 mm 2 m/S 757 mmHg 91%
    06:00 +23°C° 0 mm 2 m/S 757 mmHg 91%
    07:00 +25°C° 0 mm 2 m/S 757 mmHg 86%
    08:00 +26°C° 0 mm 2 m/S 758 mmHg 81%
    09:00 +27°C° 0 mm 3 m/S 758 mmHg 76%
    10:00 +28°C° 0,2 mm 3 m/S 758 mmHg 72%
    11:00 +29°C° 0,2 mm 3 m/S 758 mmHg 69%
    12:00 +30°C° 0,2 mm 2 m/S 757 mmHg 65%
    13:00 +31°C° 0,1 mm 2 m/S 757 mmHg 63%
    14:00 +31°C° 0,1 mm 2 m/S 756 mmHg 61%
    15:00 +31°C° 0,1 mm 1 m/S 755 mmHg 59%
    16:00 +30°C° 0 mm 1 m/S 756 mmHg 63%
    17:00 +28°C° 0 mm 1 m/S 756 mmHg 67%
    18:00 +27°C° 0 mm 1 m/S 756 mmHg 71%
    19:00 +27°C° 0 mm 1 m/S 756 mmHg 73%
    20:00 +26°C° 0 mm 1 m/S 757 mmHg 75%
    21:00 +26°C° 0 mm 1 m/S 757 mmHg 77%
    22:00 +25°C° 0 mm 1 m/S 757 mmHg 78%
    23:00 +25°C° 0 mm 1 m/S 757 mmHg 79%
    Mehr zeigen